Location: Lansingburgh
(42.7845°N, 73.6696°W)
Time: 18:30:49
(UTC+00:00)

H-2A R/B - Pass Details

Date: 24 January 2020
Orbit: 503 x 540 km, 97.3° (Epoch: 21 February)

Event Time Altitude Azimuth Distance (km) Brightness Sun altitude
Rises 22:28:13 0° 174° (S) 2,650 6.5 -6.1°
Reaches altitude 10° 22:30:19 10° 178° (S) 1,771 5.7 -6.5°
Maximum altitude 22:34:07 62° 260° (W) 604 3.4 -7.2°
Drops below altitude 10° 22:37:59 10° 341° (NNW) 1,803 5.5 -7.8°
Sets 22:40:08 0° 345° (NNW) 2,703 6.3 -8.2°
